Hourly Data Report for October 10, 2015

All times are specified in Local Standard Time (LST). Add 1 hour to adjust for Daylight Saving Time where and when it is observed.

OTTAWA INTL A
ONTARIO

45°19'00.000" N
75°40'00.000" W
114.90 m
6106001
71628
YOW

Download Data

Hourly Data (October 2015)
Hourly Data Report for October 10, 2015
Temp Definition
°C
Dew Point Temp Definition
°C
Rel Hum Definition
%
Wind Dir Definition
10's deg

Wind Spd Definition
km/h
Visibility Definition
km
Stn Press Definition
kPa
Hmdx Definition


Wind Chill Definition


Weather Definition


TIME
00:00 Legend Double Dagger 6.1 2.7 79 33 16 24.1 100.42     LegendNANA
01:00 Legend Double Dagger 4.3 0.6 77 33 16 24.1 100.52     Clear
02:00 Legend Double Dagger 3.7 0.6 80 32 16 24.1 100.55     LegendNANA
03:00 Legend Double Dagger 2.8 1.0 88 31 16 24.1 100.59     LegendNANA
04:00 Legend Double Dagger 2.4 0.5 87 30 13 24.1 100.67     Clear
05:00 Legend Double Dagger 2.2 0.1 86 29 9 24.1 100.73     LegendNANA
06:00 Legend Double Dagger 0.4 -0.9 91 31 12 24.1 100.74     LegendNANA
07:00 Legend Double Dagger 2.9 0.6 85 32 13 24.1 100.80     Mostly Cloudy
08:00 Legend Double Dagger 4.2 0.9 79 32 5 24.1 100.88     LegendNANA
09:00 Legend Double Dagger 5.1 1.0 75 36 2 24.1 100.91     LegendNANA
10:00 Legend Double Dagger 6.3 1.4 71 25 8 24.1 100.83     Mainly Clear
11:00 Legend Double Dagger 7.6 1.0 63 24 5 24.1 100.78     LegendNANA
12:00 Legend Double Dagger 8.6 0.3 56 19 8 24.1 100.68     LegendNANA
13:00 Legend Double Dagger 9.2 -0.7 50 26 8 24.1 100.60     Mostly Cloudy
14:00 Legend Double Dagger 9.8 -0.1 50 22 14 24.1 100.48     LegendNANA
15:00 Legend Double Dagger 10.9 -0.5 45 23 18 24.1 100.39     LegendNANA
16:00 Legend Double Dagger 10.4 -0.1 48 21 12 24.1 100.31     Mostly Cloudy
17:00 Legend Double Dagger 8.8 1.0 58 18 10 24.1 100.21     LegendNANA
18:00 Legend Double Dagger 7.3 1.0 64 18 11 24.1 100.19     LegendNANA
19:00 Legend Double Dagger 7.6 3.7 76 20 16 24.1 100.20     Cloudy
20:00 Legend Double Dagger 7.4 4.4 81 20 20 24.1 100.10     LegendNANA
21:00 Legend Double Dagger 7.0 4.5 84 20 17 24.1 100.05     LegendNANA
22:00 Legend Double Dagger 7.0 4.8 86 20 13 24.1 100.02     Cloudy
23:00 Legend Double Dagger 6.9 4.7 86 19 12 24.1 99.98     LegendNANA

Notes on Data Quality.

Legend

  • E = Estimated
  • M = Missing
  • NA = Not Available
  • ‡ = Partner data that is not subject to review by the National Climate Archives
Date modified: